When you browse on this site, cookies collect data to enhance your experience and personalize the content and advertising you see.
Visit our Privacy Policy to learn more. By continuing to use the site, you agree to this use of cookies and data.
  • In Portugal
  • List of Countries
  • For 7 days
  • Water Temperature
  • Weather Map
  • Weather Widgets
  • user-avatar
    Login

    Hourly Weather Shuvary

    Today, 17 September, Tuesday

    Time Temperature Precipitation Wind Pressure Humidity
    00:00 +8°C° 0 mm 5 mps 734 mmHg 93%
    01:00 +8°C° 0 mm 5 mps 734 mmHg 93%
    02:00 +8°C° 0 mm 5 mps 734 mmHg 94%
    03:00 +7°C° 0 mm 5 mps 734 mmHg 94%
    04:00 +7°C° 0 mm 5 mps 734 mmHg 94%
    05:00 +7°C° 0 mm 5 mps 734 mmHg 95%
    06:00 +7°C° 0 mm 5 mps 734 mmHg 95%
    07:00 +8°C° 0 mm 5 mps 734 mmHg 91%
    08:00 +9°C° 0 mm 6 mps 734 mmHg 87%
    09:00 +10°C° 0 mm 6 mps 734 mmHg 83%
    10:00 +11°C° 0.2 mm 6 mps 733 mmHg 79%
    11:00 +11°C° 0.2 mm 6 mps 733 mmHg 76%
    12:00 +13°C° 0.2 mm 6 mps 733 mmHg 73%
    13:00 +12°C° 0.1 mm 7 mps 733 mmHg 68%
    14:00 +14°C° 0.1 mm 7 mps 733 mmHg 64%
    15:00 +14°C° 0.1 mm 7 mps 733 mmHg 60%
    16:00 +13°C° 0.1 mm 6 mps 733 mmHg 63%
    17:00 +12°C° 0.1 mm 5 mps 733 mmHg 67%
    18:00 +11°C° 0.1 mm 4 mps 733 mmHg 70%
    19:00 +10°C° 0 mm 4 mps 733 mmHg 73%
    20:00 +8°C° 0 mm 4 mps 734 mmHg 75%
    21:00 +8°C° 0 mm 3 mps 734 mmHg 78%
    22:00 +7°C° 0 mm 3 mps 734 mmHg 80%
    23:00 +7°C° 0 mm 3 mps 734 mmHg 83%

    Tomorrow, 18 September, Wednesday

    Time Temperature Precipitation Wind Pressure Humidity
    00:00 +5°C° 0 mm 3 mps 734 mmHg 85%
    01:00 +5°C° 0 mm 3 mps 734 mmHg 86%
    02:00 +5°C° 0 mm 3 mps 734 mmHg 87%
    03:00 +5°C° 0 mm 3 mps 734 mmHg 87%
    04:00 +5°C° 0 mm 3 mps 734 mmHg 87%
    05:00 +5°C° 0 mm 3 mps 734 mmHg 87%
    06:00 +5°C° 0 mm 3 mps 734 mmHg 86%
    07:00 +7°C° 0.1 mm 4 mps 734 mmHg 81%
    08:00 +8°C° 0.1 mm 4 mps 734 mmHg 76%
    09:00 +9°C° 0.1 mm 5 mps 734 mmHg 71%
    10:00 +10°C° 0.2 mm 5 mps 734 mmHg 68%
    11:00 +11°C° 0.2 mm 6 mps 734 mmHg 64%
    12:00 +11°C° 0.2 mm 6 mps 734 mmHg 61%
    13:00 +13°C° 0.1 mm 5 mps 733 mmHg 59%
    14:00 +13°C° 0.1 mm 5 mps 733 mmHg 56%
    15:00 +14°C° 0.1 mm 4 mps 733 mmHg 54%
    16:00 +13°C° 0.1 mm 3 mps 732 mmHg 61%
    17:00 +12°C° 0.1 mm 2 mps 732 mmHg 69%
    18:00 +10°C° 0.1 mm 2 mps 732 mmHg 76%
    19:00 +11°C° 0.1 mm 1 mps 731 mmHg 80%
    20:00 +10°C° 0.1 mm 1 mps 730 mmHg 83%
    21:00 +9°C° 0.1 mm 1 mps 730 mmHg 87%
    22:00 +9°C° 0.1 mm 1 mps 729 mmHg 88%
    23:00 +9°C° 0.1 mm 1 mps 729 mmHg 89%

    Day after tomorrow, 19 September, Thursday

    Time Temperature Precipitation Wind Pressure Humidity
    00:00 +9°C° 0.1 mm 1 mps 728 mmHg 90%
    01:00 +8°C° 0.3 mm 2 mps 728 mmHg 90%
    02:00 +8°C° 0.3 mm 3 mps 728 mmHg 91%
    03:00 +7°C° 0.3 mm 4 mps 728 mmHg 91%
    04:00 +6°C° 0.2 mm 4 mps 729 mmHg 92%
    05:00 +6°C° 0.2 mm 4 mps 730 mmHg 92%
    06:00 +5°C° 0.2 mm 4 mps 731 mmHg 93%
    07:00 +6°C° 0 mm 5 mps 732 mmHg 90%
    08:00 +7°C° 0 mm 5 mps 733 mmHg 87%
    09:00 +7°C° 0 mm 6 mps 735 mmHg 84%
    10:00 +8°C° 0.1 mm 6 mps 735 mmHg 82%
    11:00 +8°C° 0.1 mm 6 mps 736 mmHg 81%
    12:00 +8°C° 0.1 mm 6 mps 737 mmHg 79%
    13:00 +8°C° 0.1 mm 6 mps 738 mmHg 80%
    14:00 +8°C° 0.1 mm 5 mps 738 mmHg 80%
    15:00 +8°C° 0.1 mm 5 mps 739 mmHg 80%
    16:00 +7°C° 0.1 mm 4 mps 740 mmHg 83%
    17:00 +7°C° 0.1 mm 4 mps 740 mmHg 85%
    18:00 +7°C° 0.1 mm 3 mps 740 mmHg 87%
    19:00 +7°C° 0 mm 3 mps 741 mmHg 89%
    20:00 +5°C° 0 mm 3 mps 741 mmHg 91%
    21:00 +5°C° 0 mm 3 mps 742 mmHg 93%
    22:00 +5°C° 0 mm 3 mps 742 mmHg 92%
    23:00 +5°C° 0 mm 3 mps 742 mmHg 92%

    20 September, Friday

    Time Temperature Precipitation Wind Pressure Humidity
    00:00 +5°C° 0 mm 3 mps 742 mmHg 92%
    01:00 +4°C° 0 mm 3 mps 742 mmHg 93%
    02:00 +4°C° 0 mm 2 mps 743 mmHg 94%
    03:00 +4°C° 0 mm 2 mps 743 mmHg 95%
    04:00 +3°C° 0 mm 2 mps 743 mmHg 95%
    05:00 +3°C° 0 mm 2 mps 743 mmHg 95%
    06:00 +3°C° 0 mm 2 mps 743 mmHg 95%
    07:00 +5°C° 0 mm 2 mps 743 mmHg 90%
    08:00 +6°C° 0 mm 2 mps 743 mmHg 84%
    09:00 +7°C° 0 mm 2 mps 743 mmHg 79%
    10:00 +8°C° 0 mm 2 mps 743 mmHg 75%
    11:00 +9°C° 0 mm 2 mps 743 mmHg 70%
    12:00 +10°C° 0 mm 2 mps 743 mmHg 66%
    13:00 +9°C° 0.1 mm 2 mps 743 mmHg 70%
    14:00 +8°C° 0.1 mm 2 mps 743 mmHg 75%
    15:00 +8°C° 0.1 mm 2 mps 743 mmHg 79%
    16:00 +7°C° 0.1 mm 2 mps 743 mmHg 81%
    17:00 +7°C° 0.1 mm 2 mps 743 mmHg 83%
    18:00 +7°C° 0.1 mm 1 mps 743 mmHg 85%
    19:00 +7°C° 0.1 mm 1 mps 744 mmHg 86%
    20:00 +7°C° 0.1 mm 1 mps 744 mmHg 87%
    21:00 +5°C° 0.1 mm 2 mps 744 mmHg 88%
    22:00 +5°C° 0 mm 2 mps 744 mmHg 90%
    23:00 +4°C° 0 mm 2 mps 744 mmHg 92%

    21 September, Saturday

    Time Temperature Precipitation Wind Pressure Humidity
    00:00 +3°C° 0 mm 2 mps 744 mmHg 95%
    01:00 +3°C° 0 mm 2 mps 744 mmHg 95%
    02:00 +2°C° 0 mm 2 mps 744 mmHg 95%
    03:00 +2°C° 0 mm 2 mps 744 mmHg 96%
    04:00 +1°C° 0 mm 2 mps 744 mmHg 96%
    05:00 +1°C° 0 mm 2 mps 744 mmHg 96%
    06:00 +1°C° 0 mm 2 mps 744 mmHg 96%
    07:00 +2°C° 0 mm 2 mps 745 mmHg 90%
    08:00 +4°C° 0 mm 2 mps 745 mmHg 84%
    09:00 +4°C° 0 mm 3 mps 745 mmHg 78%
    10:00 +5°C° 0 mm 3 mps 745 mmHg 72%
    11:00 +7°C° 0 mm 3 mps 745 mmHg 65%
    12:00 +9°C° 0 mm 3 mps 745 mmHg 58%
    13:00 +9°C° 0.1 mm 3 mps 745 mmHg 57%
    14:00 +9°C° 0.1 mm 3 mps 744 mmHg 56%
    15:00 +9°C° 0.1 mm 3 mps 744 mmHg 55%
    16:00 +8°C° 0.2 mm 3 mps 744 mmHg 62%
    17:00 +5°C° 0.2 mm 3 mps 744 mmHg 68%
    18:00 +4°C° 0.2 mm 3 mps 745 mmHg 75%
    19:00 +4°C° 0.1 mm 3 mps 745 mmHg 80%
    20:00 +3°C° 0.1 mm 3 mps 745 mmHg 85%
    21:00 +3°C° 0.1 mm 3 mps 745 mmHg 89%
    22:00 +3°C° 0.1 mm 3 mps 746 mmHg 90%
    23:00 +4°C° 0.1 mm 2 mps 746 mmHg 90%

    22 September, Sunday

    Time Temperature Precipitation Wind Pressure Humidity
    00:00 +4°C° 0.1 mm 2 mps 746 mmHg 91%
    01:00 +3°C° 0.1 mm 2 mps 746 mmHg 91%
    02:00 +3°C° 0.1 mm 2 mps 746 mmHg 91%
    03:00 +1°C° 0.1 mm 3 mps 746 mmHg 91%
    04:00 0°C° 0 mm 3 mps 746 mmHg 90%
    05:00 0°C° 0 mm 3 mps 747 mmHg 90%
    06:00 -1°C° 0 mm 2 mps 747 mmHg 89%
    07:00 +1°C° 0 mm 3 mps 747 mmHg 83%
    08:00 +2°C° 0 mm 3 mps 748 mmHg 78%
    09:00 +4°C° 0 mm 3 mps 748 mmHg 72%
    10:00 +5°C° 0 mm 3 mps 748 mmHg 65%
    11:00 +7°C° 0 mm 3 mps 748 mmHg 59%
    12:00 +9°C° 0 mm 3 mps 749 mmHg 52%
    13:00 +9°C° 0 mm 3 mps 748 mmHg 51%
    14:00 +9°C° 0 mm 3 mps 748 mmHg 49%
    15:00 +9°C° 0 mm 3 mps 748 mmHg 48%
    16:00 +8°C° 0 mm 3 mps 748 mmHg 54%
    17:00 +7°C° 0 mm 2 mps 749 mmHg 60%
    18:00 +5°C° 0 mm 2 mps 749 mmHg 66%
    19:00 +5°C° 0 mm 2 mps 749 mmHg 68%
    20:00 +4°C° 0 mm 2 mps 749 mmHg 69%
    21:00 +4°C° 0 mm 2 mps 749 mmHg 71%
    22:00 +3°C° 0 mm 2 mps 749 mmHg 72%
    23:00 +2°C° 0 mm 3 mps 749 mmHg 73%
    Show more